Showing default

COSMOS 2227, 22284

Orbit data source: Space-Track

COSMOS 2227, 22284 is a payload satellite owned by GRU (CIS) in LEO that was launched on Fri, 25 Dec 1992 UTC via a ZENIT-2 launch vehicle from the Tyuratam Missile And Space Complex (TTMTR). Payloads include a variety of satellites, spacecraft, and rockets equipped with specific instruments for various scientific and technological missions. These include communications satellites like Starlink; space stations such as the ISS; scientific satellites like the Hubble; Earth observation satellites from companies like Planet Labs, Umbra, and HawkEye 360; GPS; miniature CubeSats for education and research; and military/defense satellites.

Loading next visibility...
COSMOS 2227 details
Identifier
22284, 1992-093A
Orbit
LEO
Last TLE update17 hours ago
Origin
Flag of CISGRU (CIS)
ManufacturerYuzhnoe
MissionDefense Sigint
Bus & MotorTSELINA-2, Unknown motor
Mass3,250 kg wet, 3,250 kg dry
Launch date (UTC)
1992-12-25 (32 years ago)
Launch vehicle
ZENIT-2
Launch site
Tyuratam Missile And Space Complex (TTMTR)
Object type
Payload
Rocket body
Debris
Shape & HBRUnknown shape, 19 m
Radar Cross SectionLarge (>1 m²)

Expand to show TLE details & history

TLE from 17 hours ago
0 COSMOS 2227
1 22284U 92093A   24361.05056726  .00000406  00000-0  23998-3 0  9992
2 22284  70.9764 232.0590 0019259 331.0953  28.9100 14.13641116650777
Epoch: 2024-12-26T01:12Z
Definitive object data (Epoch: 2024-12-26T01:12:49.011Z)
Latitude-0.00004°
Longitude118.81925°
Altitude837.16 km
Speed7.441 km/s
True Right ascension15h 28m 14s
True Declination0° 00' 00"
Sunlit
Object was in daylight at TLE epoch
Visualization TLE readout
Latitude-68.59524°
Longitude-1.58429°
Altitude867.467 km
Speed7.421 km/s
Apparent Right ascension05h 54m 38s
Apparent Declination-56° 11' 28"
Sunlit
Object is in daylight
Visualization observer readout
Local Sidereal Time17:05:49
Azimuth202.195° SSW
Elevation-71.857°
Doppler factor1
Orbital elements
Apogee altitude858.778 km
Perigee altitude830.956 km
Semi-major axis7,223.004 km
Eccentricity0.0019259
Inclination70.9764°
RAAN232.059°
Arg. of periapsis331.0953°
True anomaly29.01692°
Mean anomaly28.91°
Eccentric anomaly28.96344°
Mean motion3.53563 °/min
BSTAR0.00023998
Orbital period101.82 mins
Loading maneuver chart data...
Loading historical data...
Loading historical data...
Loading historical data...
Loading historical data...
Loading historical data...
Loading historical data...
Loading historical data...

COSMOS 2227 Visibility forecast

Observer location: undefined°, undefined

Span
Click to sort rows by Start time (UTC) header in descending order
Start Az.
Max El. time (UTC)
Max El. Az.
Max El.
End time (UTC)
End Az.
7 mins2024-12-26 18:22:26.824Z262.363° W2024-12-26 18:25:26.824Z298.987° NW20.603°2024-12-26 18:29:26.824Z350.617° N
7 mins2024-12-27 01:33:26.824Z15.202° NNE2024-12-27 01:36:26.824Z58.004° ENE23.02°2024-12-27 01:40:26.824Z106.551° ESE
9 mins2024-12-27 03:16:26.824Z321.233° NNW2024-12-27 03:20:26.824Z260.599° W36.786°2024-12-27 03:25:26.824Z182.303° SSW
8 mins2024-12-27 16:24:26.824Z175.821° S2024-12-27 16:27:26.824Z126.673° SE38.107°2024-12-27 16:32:26.824Z35.317° NE
|